Moab, UT

6:01 AM MDT on October 22, 2019 (GMT -0600)
Canyonlands

Weather History for KCNY - August, 2019

Change the Weather History Date:

Sunday, August 11, 2019

  Actual Average Record
Temperature  
Mean Temperature 84 °F 78 °F  
Max Temperature 95 °F 94 °F 104 °F (1958)
Min Temperature 72 °F 63 °F 48 °F (1928)
Degree Days  
Heating Degree Days 0 0  
Month to date heating degree days 0 0  
Since 1 June heating degree days 23 17  
Since 1 July heating degree days 0 0  
Cooling Degree Days 19 13  
Month to date cooling degree days 191 159  
Year to date cooling degree days 964 952  
Since 1 June cooling degree days 949 888  
Growing Degree Days 34 (Base 50)    
Moisture  
Dew Point 40 °F    
Average Humidity 25    
Maximum Humidity 38    
Minimum Humidity 11    
Precipitation  
Precipitation 0.00 in 0.02 in 0.58 in (1945)
Month to date precipitation 0.02 0.29  
Year to date precipitation 6.17 4.83  
Sea Level Pressure  
Sea Level Pressure 29.78 in    
Wind  
Wind Speed 9 mph (SW)    
Max Wind Speed 21 mph    
Max Gust Speed 30 mph    
Visibility 10 miles    
Events      
T = Trace of Precipitation, MM = Missing Value Source: NWS Daily Summary

Daily Weather History Graph

Daily Weather History Graph

Search for Another Location

Airport or City:

Astronomy

Aug. 11, 2019 Rise Set
Actual Time 6:29 AM MDT 8:18 PM MDT
Civil Twilight 6:00 AM MDT 8:47 PM MDT
Nautical Twilight 5:25 AM MDT 9:22 PM MDT
Astronomical Twilight 4:48 AM MDT 9:59 PM MDT
Moon 5:59 PM MDT (8/11) 2:53 AM MDT (8/11)
Length of Visible Light 14h 47m
Length of Day
13h 49m
Waxing Gibbous, 87% of the Moon is Illuminated
Aug 11
Waxing Gibbous
Aug 15
Full
Aug 23
Last Quarter
Aug 30
New
Sep 5
First Quarter

Hourly Weather History & Observations

Time (MDT) Temp. Dew Point Humidity Pressure Visibility Wind Dir Wind Speed Gust Speed Precip Events Conditions
12:53 AM 79.0 °F 39.9 °F 25% 29.75 in 10.0 mi Calm Calm - N/A   Clear
1:53 AM 79.0 °F 39.9 °F 25% 29.74 in 10.0 mi Calm Calm - N/A   Clear
2:53 AM 72.0 °F 37.0 °F 28% 29.75 in 10.0 mi Calm Calm - N/A   Clear
3:53 AM 78.1 °F 46.9 °F 33% 29.75 in 10.0 mi East 4.6 mph - N/A   Clear
4:53 AM 78.1 °F 48.0 °F 35% 29.75 in 10.0 mi East 9.2 mph - N/A   Partly Cloudy
5:53 AM 75.9 °F 48.0 °F 37% 29.79 in 10.0 mi ESE 5.8 mph - N/A   Clear
6:53 AM 75.0 °F 48.0 °F 38% 29.81 in 10.0 mi Calm Calm - N/A   Clear
7:53 AM 78.1 °F 48.9 °F 36% 29.83 in 10.0 mi South 3.5 mph - N/A   Clear
8:53 AM 80.1 °F 46.9 °F 31% 29.85 in 10.0 mi WNW 3.5 mph - N/A   Clear
9:53 AM 82.9 °F 39.0 °F 21% 29.86 in 10.0 mi West 9.2 mph - N/A   Mostly Cloudy
10:53 AM 88.0 °F 39.0 °F 18% 29.86 in 10.0 mi West 17.3 mph - N/A   Mostly Cloudy
11:53 AM 88.0 °F 41.0 °F 19% 29.85 in 10.0 mi WSW 12.7 mph 19.6 mph N/A   Partly Cloudy
12:53 PM 89.1 °F 41.0 °F 19% 29.82 in 10.0 mi SSW 9.2 mph 18.4 mph N/A   Partly Cloudy
1:53 PM 89.1 °F 39.9 °F 18% 29.80 in 10.0 mi South 6.9 mph - N/A   Mostly Cloudy
2:53 PM 93.0 °F 42.1 °F 17% 29.78 in 10.0 mi SSE 8.1 mph 20.7 mph N/A   Partly Cloudy
3:53 PM 91.0 °F 39.9 °F 17% 29.75 in 10.0 mi SSW 8.1 mph 26.5 mph N/A   Partly Cloudy
4:53 PM 95.0 °F 37.0 °F 13% 29.73 in 10.0 mi WSW 20.7 mph 29.9 mph N/A   Scattered Clouds
5:53 PM 93.0 °F 37.0 °F 14% 29.72 in 10.0 mi SSW 5.8 mph 19.6 mph N/A   Mostly Cloudy
6:53 PM 91.9 °F 36.0 °F 14% 29.72 in 10.0 mi WSW 12.7 mph - N/A   Partly Cloudy
7:53 PM 89.1 °F 35.1 °F 15% 29.72 in 10.0 mi SW 10.4 mph - N/A   Clear
8:53 PM 84.9 °F 34.0 °F 16% 29.74 in 10.0 mi SW 9.2 mph - N/A   Clear
9:53 PM 82.0 °F 35.1 °F 18% 29.77 in 10.0 mi SW 11.5 mph - N/A   Clear
10:53 PM 80.1 °F 30.9 °F 17% 29.78 in 10.0 mi West 11.5 mph - N/A   Clear
11:53 PM 79.0 °F 19.9 °F 11% 29.78 in 10.0 mi West 11.5 mph - N/A   Clear